ATLAS 5 CENTAUR R/B, 40106

Orbit data source: Space-Track

ATLAS 5 CENTAUR R/B, 40106 is space debris in MEO originally from a launch on Sat, 02 Aug 2014 UTC launched from the Air Force Eastern Test Range (AFETR). Debris objects in space refer to the collection of defunct objects orbiting the Earth. Examples of debris include non-operational satellites, rocket bodies, and fragments generated from explosions, collisions, or faulty payload assembly.

Loading next visibility...
Identifier
40106, 2014-045B
Orbit
MEO
Country
Flag of USUS
Related business
Flag of USUnited Launch Alliance/Lockheed Martin (US)
Manufacturer
LMSS Denver
Mission
Spacecraft
Bus & Motor
CENTAUR SEC, RL10-4A-2
Mass
~2,020 kg wet, 2,020 kg dry
Launch date (UTC)
2014-08-02 (12 years ago)
Launch vehicle
Unknown
Launch site
Air Force Eastern Test Range (AFETR)
Object type
Payload
Rocket body
Debris
Shape & HBR
Cyl + 1 Nozzle, 5.8 m
Radar Cross Section
32.260 m², Large (>1 m²)

Expand to show TLE details & history
Last TLE update: 2 days ago

TLE from 2 days ago
0 ATLAS 5 CENTAUR R/B
1 40106U 14045B   26171.24059082  .00000008  00000-0  00000+0 0  9999
2 40106  55.3215 106.6773 0153673  26.7538 334.0078  1.90830530 82813
Epoch: 2026-06-20T05:46Z
TLE epoch observation values (Epoch: 2026-06-20T05:46:27.046Z)
Latitude
0.00001°
Longitude
111.60314°
Altitude
20,699.485 km
Speed
3.863 km/s
True Right ascension
07h 06m 41s
True Declination
0° 00' 00"
Sunlit
Object was in daylight at epoch
Visualization orbit readout
Latitude
Unknown
Longitude
Unknown
Altitude
Unknown
Speed
Unknown
Apparent Right ascension
Unknown
Apparent Declination
Unknown
Sunlit
N/A
Visualization observer readout
Local Sidereal Time
21:35:59
Azimuth
Unknown
Elevation
Unknown
Doppler factor
Unknown
Orbital elements
Apogee altitude
21,499.739 km
Perigee altitude
20,655.891 km
Semi-major axis
27,455.952 km
Eccentricity
0.01537
Inclination
55.3215°
RAAN
106.6773°
Arg. of periapsis
26.7538°
True anomaly
333.22254°
Mean anomaly
334.0078°
Eccentric anomaly
333.61653°
Mean motion
0.47708 °/min
Orbital period
754.6 mins
BSTAR
0
Loading maneuver chart data...
Computing Atmospheric mass density...
Loading historical data...
Loading historical data...
Loading historical data...
Loading historical data...
Loading historical data...
Loading historical data...
Loading historical data...
Other satellites on launch #45 in the year 2014 (2014-08-02 UTC)

Documentation

Showing up to 5 results
|